Location: ????????
(55.0559°N, 39.1270°E)
Time: 08:51:17
(UTC+00:00)

Cosmos 292 Rocket - Pass Details

Date: 15 November 2025
Orbit: 662 x 682 km, 74.0° (Epoch: 14 December)

Event Time Altitude Azimuth Distance (km) Brightness Sun altitude
Exits shadow 03:56:39 - 328° (NNW) 2,615 6.3 -8.4°
Reaches altitude 10° 03:57:54 10° 324° (NW) 2,137 5.8 -8.2°
Maximum altitude 04:02:31 48° 251° (WSW) 890 4.1 -7.6°
Drops below altitude 10° 04:07:05 10° 178° (S) 2,114 6.6 -7.0°
Sets 04:09:25 0° 173° (S) 3,021 7.5 -6.7°
